OE6PLD-13 Weather Reports


Display with metric or nautical units.
time (UTC)temp
F
wind
direction
speed
MPH
gust
MPH
rain 1hr
in
rain 24hr
in
rain mn
in
humidity
%
barometer
mb
20260906002721 57 266 0.0 0.0 0.03 0.03 0.00 99 1017.0
20260906002418 57 266 0.0 0.0 0.03 0.03 0.00 99 1016.9
20260906002114 57 266 0.0 0.0 0.03 0.03 0.00 99 1016.5
20260906001811 57 266 0.0 0.0 0.03 0.03 0.00 99 1016.5
20260906001507 57 266 0.0 0.0 0.03 0.03 0.00 99 1016.6
20260906001204 57 266 0.0 0.0 0.03 0.03 0.00 99 1016.8
20260906000901 57 266 0.0 0.0 0.03 0.03 0.00 99 1016.5
20260906000558 57 266 0.0 0.0 0.03 0.03 0.00 99 1016.7
20260906000256 57 266 0.0 0.0 0.03 0.03 0.00 99 1016.7
20260905235951 57 266 0.0 0.0 0.03 0.03 0.00 99 1016.5
20260905235647 57 266 0.0 0.0 0.03 0.03 0.00 99 1016.5
20260905235344 57 266 0.0 0.0 0.03 0.03 0.00 99 1016.5
20260905235041 57 266 0.0 0.0 0.03 0.03 0.00 99 1016.3
20260905234737 57 266 0.0 0.0 0.03 0.03 0.00 99 1016.2
20260905234434 57 266 0.0 0.0 0.03 0.03 0.00 99 1016.4
20260905234131 57 266 0.0 0.0 0.03 0.03 0.00 99 1016.4
20260905233827 57 266 0.0 0.0 0.03 0.03 0.00 99 1016.2
20260905233524 56 266 0.0 0.0 0.03 0.03 0.00 99 1016.4
20260905233221 56 266 0.0 0.0 0.03 0.03 0.00 98 1016.1
20260905232917 56 266 0.0 0.0 0.03 0.03 0.00 99 1016.1
20260905232614 56 266 0.0 1.0 0.03 0.03 0.00 98 1016.2
20260905232311 55 266 0.0 3.0 0.03 0.03 0.00 98 1016.1
20260905232007 56 266 0.0 0.0 0.03 0.03 0.00 98 1015.9
20260905231704 56 266 0.0 3.0 0.03 0.03 0.00 98 1015.9
20260905231401 56 266 0.0 0.0 0.03 0.03 0.00 98 1016.0
20260905231057 56 266 0.0 0.0 0.03 0.03 0.00 98 1016.0
20260905230754 57 266 0.0 0.0 0.03 0.03 0.00 98 1016.1
20260905230451 57 266 0.0 0.0 0.03 0.03 0.00 98 1016.2
20260905230147 56 266 0.0 0.0 0.03 0.03 0.00 99 1016.2
20260905225844 56 266 0.0 0.0 0.03 0.03 0.00 98 1016.1
20260905225541 56 266 0.0 0.0 0.03 0.03 0.00 98 1016.2
20260905225237 57 266 0.0 2.0 0.03 0.03 0.00 98 1016.1
20260905224934 57 266 0.0 1.0 0.03 0.03 0.00 98 1016.0
20260905224631 57 266 0.0 0.0 0.03 0.03 0.00 98 1016.2
20260905224327 57 266 0.0 0.0 0.03 0.03 0.00 98 1016.2
20260905224024 57 266 0.0 0.0 0.03 0.03 0.00 98 1016.2
20260905223721 57 266 0.0 0.0 0.03 0.03 0.00 98 1016.1
20260905223417 56 266 0.0 0.0 0.03 0.03 0.00 98 1016.0
20260905223114 57 266 0.0 0.0 0.03 0.03 0.00 98 1016.1
20260905222811 57 266 0.0 0.0 0.03 0.03 0.00 98 1016.0
20260905222507 57 266 0.0 0.0 0.03 0.03 0.00 98 1016.0
20260905222204 57 266 0.0 0.0 0.03 0.03 0.00 98 1016.0
20260905221901 57 266 0.0 0.0 0.03 0.03 0.00 98 1016.1
20260905221557 57 266 0.0 0.0 0.03 0.03 0.00 98 1016.0
20260905221254 57 266 0.0 0.0 0.03 0.03 0.00 98 1015.9
20260905220951 57 266 0.0 0.0 0.03 0.03 0.00 98 1016.1
20260905220647 57 266 0.0 0.0 0.03 0.03 0.00 98 1016.2
20260905220344 57 266 0.0 0.0 0.03 0.03 0.00 98 1016.1
20260905220041 57 266 0.0 0.0 0.03 0.03 0.00 97 1016.3
20260905215737 57 266 0.0 0.0 0.03 0.03 0.00 97 1016.1
20260905215434 57 266 0.0 0.0 0.03 0.03 0.00 97 1016.2
20260905215131 57 266 0.0 0.0 0.03 0.03 0.00 97 1016.3
20260905214827 58 266 0.0 0.0 0.03 0.03 0.00 97 1016.0
20260905214524 58 266 0.0 0.0 0.03 0.03 0.00 97 1016.0
20260905214220 58 266 0.0 0.0 0.03 0.03 0.00 97 1016.1
20260905213917 58 266 0.0 0.0 0.03 0.03 0.00 97 1016.0
20260905213614 58 266 0.0 0.0 0.03 0.03 0.00 97 1015.9
20260905213310 58 266 0.0 0.0 0.03 0.03 0.00 97 1016.0
20260905213007 58 266 0.0 0.0 0.03 0.03 0.00 97 1015.9
20260905212703 58 266 0.0 0.0 0.03 0.03 0.00 97 1016.1
20260905212400 58 266 0.0 0.0 0.03 0.03 0.00 97 1015.9
20260905212057 59 266 0.0 0.0 0.03 0.03 0.00 97 1015.7
20260905211753 59 266 0.0 0.0 0.03 0.03 0.00 97 1015.9
20260905211450 59 266 0.0 0.0 0.03 0.03 0.00 97 1015.8
20260905211147 59 266 0.0 0.0 0.03 0.03 0.00 97 1015.7
20260905210843 59 266 0.0 0.0 0.03 0.03 0.00 96 1015.9
20260905210540 59 266 0.0 0.0 0.03 0.03 0.00 96 1015.7
20260905210237 59 266 0.0 0.0 0.03 0.03 0.00 96 1015.6
20260905205933 59 266 0.0 0.0 0.03 0.03 0.00 96 1015.8
20260905205630 59 266 0.0 0.0 0.03 0.03 0.00 96 1015.7
20260905205327 59 266 0.0 0.0 0.03 0.03 0.00 96 1015.6
20260905205023 59 266 0.0 0.0 0.03 0.03 0.00 96 1015.6
20260905204720 59 266 0.0 0.0 0.03 0.03 0.00 96 1015.4
20260905204417 59 266 0.0 0.0 0.03 0.03 0.00 96 1015.6
20260905204113 60 266 0.0 0.0 0.03 0.03 0.00 96 1015.6
20260905203810 60 266 0.0 0.0 0.03 0.03 0.00 96 1015.5
20260905203506 60 266 0.0 0.0 0.03 0.03 0.00 96 1015.3
20260905203203 60 266 0.0 0.0 0.03 0.03 0.00 96 1015.7
20260905202900 60 266 0.0 0.0 0.03 0.03 0.00 95 1015.5
20260905202556 60 266 0.0 0.0 0.03 0.03 0.00 95 1015.3
20260905202253 60 266 0.0 0.0 0.03 0.03 0.00 95 1015.3
20260905201950 60 266 0.0 0.0 0.03 0.03 0.00 95 1015.4
20260905201646 61 266 0.0 0.0 0.03 0.03 0.00 95 1015.3
20260905201343 61 266 0.0 0.0 0.03 0.03 0.00 95 1015.2
20260905201040 61 266 0.0 0.0 0.03 0.03 0.00 94 1015.3
20260905200737 61 266 0.0 0.0 0.03 0.03 0.00 94 1015.2
20260905200433 61 266 0.0 0.0 0.03 0.03 0.00 94 1015.3
20260905200130 61 266 0.0 0.0 0.03 0.03 0.00 94 1015.3
20260905195827 61 266 0.0 0.0 0.03 0.03 0.00 94 1015.3
20260905195523 61 266 0.0 0.0 0.03 0.03 0.00 94 1015.3
20260905195219 61 266 0.0 0.0 0.03 0.03 0.00 94 1015.1
20260905194916 62 266 0.0 0.0 0.03 0.03 0.00 93 1015.0
20260905194613 62 266 0.0 0.0 0.03 0.03 0.00 93 1014.9
20260905194309 62 266 0.0 0.0 0.03 0.03 0.00 93 1014.9
20260905194006 62 266 0.0 0.0 0.03 0.03 0.00 93 1015.2
20260905193703 62 266 0.0 0.0 0.03 0.03 0.00 93 1014.7
20260905193359 62 266 0.0 0.0 0.03 0.03 0.00 93 1015.0
20260905193056 62 266 0.0 0.0 0.03 0.03 0.00 93 1014.8
20260905192753 63 266 0.0 0.0 0.03 0.03 0.00 92 1014.8
20260905192449 63 266 0.0 0.0 0.03 0.03 0.00 92 1014.8
20260905192146 63 266 0.0 0.0 0.03 0.03 0.00 92 1014.8
20260905191843 63 266 0.0 0.0 0.03 0.03 0.00 92 1014.7
20260905191539 63 266 0.0 0.0 0.03 0.03 0.00 92 1014.7
20260905191236 63 261 0.0 0.0 0.03 0.03 0.00 91 1014.6
20260905190933 64 256 0.0 0.0 0.03 0.03 0.00 90 1014.6
20260905190629 64 252 0.0 0.0 0.03 0.03 0.00 90 1014.8
20260905190326 64 249 0.0 0.0 0.03 0.03 0.00 90 1014.6
20260905190023 64 246 0.0 0.0 0.03 0.03 0.00 90 1014.7
20260905185719 64 242 0.0 0.0 0.03 0.03 0.00 90 1014.6
20260905185416 64 238 0.0 0.0 0.03 0.03 0.00 89 1014.4
20260905185113 65 230 0.0 0.0 0.03 0.03 0.00 89 1014.2
20260905184809 65 220 0.0 0.0 0.03 0.03 0.00 89 1014.4
20260905184506 65 209 0.0 0.0 0.03 0.03 0.00 89 1014.2
20260905184202 65 192 0.0 0.0 0.03 0.03 0.00 89 1014.1
20260905183859 65 180 0.0 0.0 0.03 0.03 0.00 88 1014.1
20260905183556 66 164 0.0 0.0 0.03 0.03 0.00 87 1014.1
20260905183253 66 159 0.0 0.0 0.03 0.03 0.00 88 1013.8
20260905182949 66 155 0.0 0.0 0.03 0.03 0.00 87 1014.0
20260905182646 66 149 0.0 0.0 0.03 0.03 0.00 87 1014.0
20260905182343 66 144 0.0 1.0 0.03 0.03 0.00 86 1013.8
20260905182039 66 139 0.0 1.0 0.03 0.03 0.00 86 1014.0
20260905181736 66 138 0.0 2.0 0.03 0.03 0.00 86 1014.1
20260905181433 67 137 0.0 2.0 0.03 0.03 0.00 85 1013.8
20260905181129 67 134 1.0 2.0 0.03 0.03 0.00 85 1013.9
20260905180826 67 132 0.0 2.0 0.03 0.03 0.00 84 1013.7
20260905180523 67 125 0.0 0.0 0.03 0.03 0.00 85 1013.6
20260905180219 68 130 0.0 0.0 0.03 0.03 0.00 85 1013.8
20260905175916 68 128 0.0 0.0 0.03 0.03 0.00 84 1013.7
20260905175613 68 127 0.0 0.0 0.03 0.03 0.00 83 1013.7
20260905175309 69 127 0.0 0.0 0.03 0.03 0.00 83 1013.6
20260905175006 69 125 0.0 0.0 0.03 0.03 0.00 81 1013.6
20260905174702 69 125 0.0 0.0 0.03 0.03 0.00 81 1013.4
20260905174359 69 126 0.0 0.0 0.03 0.03 0.00 81 1013.4
20260905174056 69 126 0.0 0.0 0.03 0.03 0.00 81 1013.3
20260905173752 69 126 0.0 0.0 0.03 0.03 0.00 81 1013.4
20260905173449 70 130 0.0 0.0 0.03 0.03 0.00 80 1013.3
20260905173146 70 137 0.0 0.0 0.03 0.03 0.00 80 1013.2
20260905172842 70 149 0.0 0.0 0.03 0.03 0.00 80 1013.2
20260905172539 71 159 0.0 0.0 0.03 0.03 0.00 79 1013.4
20260905172236 71 172 0.0 0.0 0.03 0.03 0.00 78 1013.1
20260905171932 71 192 0.0 0.0 0.03 0.03 0.00 78 1013.1
20260905171629 71 214 0.0 0.0 0.03 0.03 0.00 78 1013.0
20260905171326 71 226 0.0 0.0 0.03 0.03 0.00 77 1013.1
20260905171022 72 243 0.0 0.0 0.03 0.03 0.00 76 1012.9
20260905170719 72 250 0.0 0.0 0.03 0.03 0.00 76 1013.3
20260905170415 72 250 0.0 1.0 0.03 0.03 0.00 75 1012.9
20260905170112 73 249 0.0 2.0 0.03 0.03 0.00 74 1012.9
20260905165809 73 248 1.0 2.0 0.03 0.03 0.00 73 1012.9
20260905165505 73 249 0.0 0.0 0.03 0.03 0.00 72 1012.8
20260905165202 73 250 0.0 0.0 0.03 0.03 0.00 72 1012.8
20260905164859 74 250 0.0 0.0 0.03 0.03 0.00 71 1012.8
20260905164555 74 249 1.0 2.0 0.03 0.03 0.00 70 1012.7
20260905164252 75 253 0.0 3.0 0.03 0.03 0.00 70 1012.7
20260905163949 77 255 0.0 3.0 0.03 0.03 0.00 68 1012.6
20260905163645 77 256 0.0 3.0 0.03 0.03 0.00 66 1012.7
20260905163342 77 256 0.0 3.0 0.03 0.03 0.00 65 1012.4
20260905163039 77 254 1.0 3.0 0.03 0.03 0.00 65 1012.6
20260905162735 76 254 0.0 1.0 0.03 0.03 0.00 65 1012.4
20260905162432 75 254 0.0 3.0 0.03 0.03 0.00 67 1012.3
20260905162129 74 255 0.0 3.0 0.03 0.03 0.00 68 1012.4
20260905161825 73 256 2.0 4.0 0.03 0.03 0.00 69 1012.4
20260905161522 74 256 0.0 3.0 0.03 0.03 0.00 69 1012.5
20260905161218 74 255 2.0 3.0 0.03 0.03 0.00 68 1012.4
20260905160915 77 254 0.0 3.0 0.03 0.03 0.00 66 1012.6
20260905160612 78 252 2.0 4.0 0.03 0.03 0.00 62 1012.5
20260905160308 78 250 0.0 4.0 0.03 0.03 0.00 62 1012.5
20260905160005 77 250 1.0 2.0 0.03 0.03 0.00 63 1012.5
20260905155702 76 248 0.0 8.0 0.03 0.03 0.00 66 1012.6
20260905155358 76 246 4.0 8.0 0.03 0.03 0.00 65 1012.5
20260905155055 76 247 3.0 4.0 0.03 0.03 0.00 67 1012.4
20260905154752 76 246 0.0 4.0 0.03 0.03 0.00 65 1012.4
20260905154448 76 245 2.0 5.0 0.03 0.03 0.00 66 1012.3
20260905154145 77 245 3.0 5.0 0.03 0.03 0.00 63 1012.4
20260905153842 77 246 1.0 5.0 0.03 0.03 0.00 64 1012.4
20260905153538 76 246 3.0 8.0 0.03 0.03 0.00 65 1012.2
20260905153235 76 245 3.0 5.0 0.03 0.03 0.00 67 1012.5
20260905152932 76 245 0.0 3.0 0.03 0.03 0.00 65 1012.3
20260905152628 77 242 0.0 4.0 0.03 0.00 0.00 64 1012.5
20260905152325 76 241 0.0 3.0 0.03 0.00 0.00 64 1012.4
20260905152022 75 239 2.0 4.0 0.03 0.00 0.00 67 1012.4
20260905151718 75 237 2.0 6.0 0.03 0.00 0.00 67 1012.7
20260905151415 75 234 5.0 6.0 0.03 0.00 0.00 67 1012.5
20260905151112 74 232 5.0 8.0 0.03 0.00 0.00 67 1012.4
20260905150808 74 229 3.0 6.0 0.03 0.00 0.00 68 1012.4
20260905150505 74 227 4.0 5.0 0.03 0.00 0.00 68 1012.5
20260905150202 75 226 3.0 6.0 0.03 0.00 0.00 67 1012.7
20260905145858 75 226 4.0 5.0 0.03 0.00 0.00 68 1012.4
20260905145555 74 226 1.0 4.0 0.03 0.00 0.00 70 1012.6
20260905145252 74 226 2.0 5.0 0.03 0.00 0.00 70 1012.7
20260905144948 74 225 3.0 6.0 0.03 0.00 0.00 70 1012.6
20260905144645 74 225 3.0 5.0 0.03 0.00 0.00 70 1012.5
20260905144342 73 225 0.0 6.0 0.03 0.00 0.00 71 1012.5
20260905144038 73 226 3.0 6.0 0.03 0.00 0.00 72 1012.5
20260905143735 73 226 3.0 5.0 0.03 0.00 0.00 72 1012.7
20260905143432 73 225 3.0 6.0 0.03 0.00 0.00 70 1012.5
20260905143128 74 223 5.0 6.0 0.03 0.00 0.00 70 1012.6
20260905142825 74 220 0.0 3.0 0.03 0.00 0.00 71 1012.6
20260905142521 74 218 1.0 5.0 0.03 0.00 0.00 70 1012.6
20260905142218 73 216 3.0 6.0 0.03 0.00 0.00 72 1012.6
20260905141915 73 212 2.0 6.0 0.03 0.00 0.00 71 1012.8
20260905141612 74 207 3.0 4.0 0.03 0.00 0.00 70 1012.9
20260905141308 74 205 3.0 6.0 0.03 0.00 0.00 69 1012.7
20260905141005 73 203 0.0 6.0 0.03 0.00 0.00 72 1012.9
20260905140701 73 202 3.0 8.0 0.03 0.00 0.00 71 1012.9
20260905140358 73 190 3.0 5.0 0.03 0.00 0.00 71 1012.9
20260905140053 73 180 1.0 3.0 0.03 0.00 0.00 71 1012.9
20260905135750 74 178 0.0 5.0 0.03 0.00 0.00 71 1012.9
20260905135446 73 182 2.0 6.0 0.03 0.00 0.00 72 1012.8
20260905135143 73 181 1.0 6.0 0.03 0.00 0.00 71 1012.9
20260905134840 73 180 3.0 4.0 0.03 0.00 0.00 72 1012.8
20260905134536 71 183 2.0 5.0 0.03 0.00 0.00 73 1012.8
20260905134233 71 181 3.0 8.0 0.03 0.00 0.00 73 1012.7
20260905133930 72 170 6.0 8.0 0.03 0.00 0.00 72 1012.8
20260905133626 73 152 2.0 5.0 0.03 0.00 0.00 70 1012.7
20260905133323 73 147 1.0 5.0 0.03 0.00 0.00 68 1012.8
20260905133019 73 148 2.0 5.0 0.03 0.00 0.00 70 1012.9
20260905132716 72 152 4.0 5.0 0.03 0.00 0.00 71 1013.0
20260905132413 72 146 4.0 5.0 0.03 0.00 0.00 69 1012.7
20260905132109 72 135 1.0 5.0 0.03 0.00 0.00 70 1013.0
20260905131806 72 134 0.0 5.0 0.03 0.00 0.00 70 1012.7
20260905131502 72 123 3.0 4.0 0.03 0.00 0.00 69 1013.0
20260905131159 72 118 0.0 0.0 0.03 0.00 0.00 69 1013.0
20260905130856 72 120 0.0 2.0 0.03 0.00 0.00 67 1013.0
20260905130552 72 122 1.0 2.0 0.03 0.00 0.00 69 1013.0
20260905130249 71 126 0.0 0.0 0.03 0.00 0.00 70 1012.7
20260905125946 71 132 0.0 0.0 0.03 0.00 0.00 70 1013.0
20260905125642 71 141 0.0 0.0 0.03 0.00 0.00 70 1013.2
20260905125339 71 153 0.0 3.0 0.03 0.00 0.00 71 1013.0
20260905125036 70 162 2.0 3.0 0.03 0.00 0.00 72 1013.1
20260905124732 70 165 0.0 0.0 0.03 0.00 0.00 73 1013.3
20260905124429 70 177 0.0 5.0 0.03 0.00 0.00 74 1013.1
20260905124126 70 185 1.0 5.0 0.03 0.00 0.00 74 1012.9
20260905123822 70 185 2.0 5.0 0.03 0.00 0.00 73 1013.1
20260905123519 70 190 0.0 5.0 0.03 0.00 0.00 73 1013.1
20260905123215 70 194 0.0 6.0 0.03 0.00 0.00 73 1013.2
20260905122912 70 194 3.0 9.0 0.03 0.00 0.00 72 1013.3
20260905122608 71 187 2.0 6.0 0.03 0.00 0.00 70 1013.4
20260905122307 71 189 0.0 8.0 0.03 0.00 0.00 69 1013.2
20260905122002 71 192 2.0 8.0 0.03 0.00 0.00 68 1013.1
20260905121658 71 187 2.0 5.0 0.03 0.00 0.00 67 1013.0
20260905121355 72 184 0.0 0.0 0.03 0.00 0.00 67 1013.1
20260905121052 72 190 0.0 0.0 0.03 0.00 0.00 67 1013.0
20260905120748 72 199 0.0 5.0 0.03 0.00 0.00 67 1012.8
20260905120445 72 213 0.0 5.0 0.03 0.00 0.00 66 1013.0
20260905120141 72 221 0.0 3.0 0.03 0.00 0.00 67 1013.1
20260905115838 72 231 0.0 3.0 0.03 0.00 0.00 69 1015.2
20260905115535 72 240 0.0 3.0 0.03 0.00 0.00 67 1015.3
20260905115231 72 239 0.0 4.0 0.03 0.00 0.00 68 1015.3
20260905114928 72 246 0.0 0.0 0.03 0.00 0.00 67 1015.3
20260905114625 73 249 0.0 2.0 0.03 0.00 0.00 66 1015.2
20260905114321 73 250 0.0 0.0 0.03 0.00 0.00 64 1015.1
20260905114018 73 247 0.0 0.0 0.03 0.00 0.00 64 1015.1
20260905113714 73 246 0.0 3.0 0.03 0.00 0.00 62 1015.3
20260905113411 73 245 1.0 3.0 0.03 0.00 0.00 62 1015.5
20260905113108 73 246 0.0 0.0 0.03 0.00 0.00 61 1015.3
20260905112804 73 245 0.0 4.0 0.03 0.00 0.00 61 1015.3
20260905112501 73 245 2.0 4.0 0.03 0.00 0.00 60 1015.2
20260905112158 73 246 0.0 5.0 0.03 0.00 0.00 61 1015.3
20260905111854 74 246 1.0 3.0 0.03 0.00 0.00 60 1015.3
20260905111551 74 247 0.0 0.0 0.03 0.00 0.00 60 1014.9
20260905111248 74 245 0.0 0.0 0.03 0.00 0.00 60 1015.0
20260905110944 74 244 0.0 4.0 0.03 0.00 0.00 62 1015.1
20260905110641 74 245 3.0 4.0 0.03 0.00 0.00 60 1015.0
20260905110338 74 248 1.0 3.0 0.03 0.00 0.00 60 1015.0
20260905110034 74 252 0.0 3.0 0.03 0.00 0.00 61 1014.8
20260905105731 74 254 0.0 2.0 0.03 0.00 0.00 60 1015.1
20260905105428 73 254 0.0 2.0 0.03 0.00 0.00 61 1015.0
20260905105124 73 255 0.0 4.0 0.03 0.00 0.00 61 1015.1
20260905104821 73 254 0.0 5.0 0.03 0.00 0.00 62 1015.2
20260905104518 73 256 0.0 3.0 0.03 0.00 0.00 61 1015.0
20260905104214 73 256 0.0 3.0 0.03 0.00 0.00 61 1015.0
20260905103911 73 257 2.0 4.0 0.03 0.00 0.00 61 1014.9
20260905103608 74 260 0.0 1.0 0.03 0.00 0.00 60 1015.0
20260905103304 75 259 0.0 0.0 0.03 0.00 0.00 61 1015.0
20260905103000 74 260 0.0 2.0 0.03 0.00 0.00 60 1014.8
20260905102657 74 260 0.0 2.0 0.03 0.00 0.00 61 1014.6
20260905102353 73 263 0.0 2.0 0.03 0.00 0.00 61 1015.1
20260905102050 73 264 0.0 0.0 0.03 0.00 0.00 61 1014.9
20260905101747 73 264 0.0 0.0 0.03 0.00 0.00 60 1014.9
20260905101443 73 264 0.0 0.0 0.03 0.00 0.00 62 1015.1
20260905101140 73 264 0.0 2.0 0.03 0.00 0.00 63 1015.0
20260905100837 73 263 1.0 3.0 0.03 0.00 0.00 62 1015.0
20260905100533 73 264 2.0 3.0 0.03 0.00 0.00 61 1014.9
20260905100230 73 264 0.0 1.0 0.03 0.00 0.00 63 1015.0
20260905095926 73 263 0.0 1.0 0.03 0.00 0.00 62 1015.0
20260905095623 73 263 0.0 3.0 0.03 0.00 0.00 63 1015.0
20260905095320 73 262 2.0 3.0 0.03 0.00 0.00 62 1015.1
20260905095016 73 263 1.0 3.0 0.03 0.00 0.00 63 1015.1
20260905094713 73 263 0.0 3.0 0.03 0.00 0.00 62 1015.0
20260905094410 73 264 0.0 2.0 0.03 0.00 0.00 61 1014.7
20260905094106 73 264 0.0 0.0 0.03 0.00 0.00 62 1014.9
20260905093803 73 265 0.0 5.0 0.03 0.00 0.00 62 1014.8
20260905093500 73 266 1.0 5.0 0.03 0.00 0.00 62 1014.7
20260905093156 73 266 0.0 4.0 0.03 0.00 0.00 64 1014.7
20260905092852 73 266 1.0 6.0 0.03 0.00 0.00 62 1014.5
20260905092549 74 266 0.0 6.0 0.03 0.00 0.00 61 1014.7
20260905092245 73 266 2.0 4.0 0.03 0.00 0.00 61 1014.4
20260905091942 73 266 2.0 4.0 0.03 0.00 0.00 62 1014.6
20260905091639 73 266 2.0 4.0 0.03 0.00 0.00 62 1014.7
20260905091335 73 266 0.0 4.0 0.03 0.00 0.00 64 1014.6
20260905091032 72 266 2.0 8.0 0.03 0.00 0.00 65 1014.6
20260905090729 72 266 1.0 4.0 0.03 0.00 0.00 65 1014.7
20260905090425 71 266 0.0 4.0 0.03 0.00 0.00 68 1014.6
20260905090122 70 266 2.0 4.0 0.03 0.00 0.00 68 1014.6
20260905085819 70 266 2.0 8.0 0.03 0.00 0.00 69 1014.5
20260905085515 69 266 3.0 8.0 0.03 0.00 0.00 69 1014.4
20260905085212 69 266 0.0 6.0 0.03 0.00 0.00 71 1014.5
20260905084909 69 266 3.0 6.0 0.03 0.00 0.00 71 1014.7
20260905084605 69 266 0.0 4.0 0.03 0.00 0.00 71 1014.4
20260905084302 69 266 0.0 4.0 0.03 0.00 0.00 71 1014.6
20260905083959 69 266 1.0 4.0 0.03 0.00 0.00 71 1014.7
20260905083655 69 266 0.0 4.0 0.03 0.00 0.00 70 1014.7
20260905083352 69 266 3.0 4.0 0.03 0.00 0.00 68 1014.5
20260905083049 69 265 1.0 8.0 0.03 0.00 0.00 67 1014.5
20260905082745 70 265 1.0 5.0 0.03 0.00 0.00 67 1014.4
20260905082442 70 266 2.0 5.0 0.03 0.00 0.00 66 1014.5
20260905082139 70 263 2.0 4.0 0.03 0.00 0.00 66 1014.5
20260905081835 70 261 2.0 8.0 0.03 0.00 0.00 63 1014.5
20260905081532 70 260 4.0 8.0 0.03 0.00 0.00 62 1014.2
20260905081229 70 261 4.0 11.0 0.03 0.00 0.00 62 1014.5
20260905080925 71 261 5.0 6.0 0.03 0.00 0.00 62 1014.2
20260905080622 71 263 0.0 5.0 0.03 0.00 0.00 63 1014.3
20260905080319 71 263 0.0 5.0 0.03 0.00 0.00 63 1014.2
20260905080015 71 264 3.0 5.0 0.03 0.00 0.00 62 1014.0
20260905075712 71 265 0.0 5.0 0.03 0.00 0.00 62 1013.7
20260905075409 71 266 4.0 5.0 0.03 0.00 0.00 61 1013.8
20260905075105 71 266 0.0 6.0 0.03 0.00 0.00 62 1013.7
20260905074802 71 266 3.0 8.0 0.03 0.00 0.00 62 1013.5
20260905074459 72 266 4.0 8.0 0.03 0.00 0.00 62 1013.8
20260905074155 72 266 3.0 5.0 0.03 0.00 0.00 62 1013.5
20260905073852 72 266 0.0 5.0 0.03 0.00 0.00 62 1013.5
20260905073549 73 266 2.0 5.0 0.03 0.00 0.00 63 1013.7
20260905073245 73 266 1.0 12.0 0.03 0.00 0.00 62 1013.7
20260905072942 73 266 2.0 12.0 0.03 0.00 0.00 62 1013.4
20260905072639 73 266 2.0 9.0 0.03 0.00 0.00 62 1013.5
20260905072334 73 266 0.0 18.0 0.03 0.00 0.00 63 1013.4
20260905072031 74 266 4.0 10.0 0.03 0.00 0.00 62 1013.2
20260905071728 74 266 2.0 10.0 0.03 0.00 0.00 63 1013.2
20260905071424 74 266 3.0 10.0 0.03 0.00 0.00 64 1013.3
20260905071121 73 266 2.0 11.0 0.03 0.00 0.00 65 1013.1
20260905070818 73 266 5.0 11.0 0.03 0.00 0.00 66 1012.7
20260905070514 72 266 3.0 9.0 0.03 0.00 0.00 72 1012.9
20260905070211 72 266 1.0 5.0 0.03 0.00 0.00 76 1012.7
20260905065908 71 266 0.0 6.0 0.03 0.00 0.00 77 1012.8
20260905065604 71 266 1.0 4.0 0.03 0.00 0.00 78 1012.7
20260905065301 70 266 2.0 4.0 0.03 0.00 0.00 80 1012.7
20260905064958 69 266 2.0 3.0 0.03 0.00 0.00 81 1012.6
20260905064654 69 266 2.0 3.0 0.03 0.00 0.00 83 1012.5
20260905064351 68 266 0.0 0.0 0.03 0.00 0.00 84 1012.4
20260905064048 68 266 0.0 2.0 0.03 0.00 0.00 85 1012.3
20260905063744 67 266 1.0 5.0 0.03 0.00 0.00 86 1012.4
20260905063441 66 266 2.0 5.0 0.03 0.00 0.00 87 1012.2
20260905063138 65 266 0.0 3.0 0.03 0.00 0.00 87 1012.5
20260905062834 65 266 0.0 0.0 0.03 0.00 0.00 88 1012.0
20260905062531 65 266 0.0 0.0 0.03 0.00 0.00 88 1012.0
20260905062228 65 266 0.0 0.0 0.03 0.00 0.00 89 1011.9
20260905061924 66 266 0.0 0.0 0.03 0.00 0.00 89 1011.7
20260905061621 65 266 0.0 0.0 0.03 0.00 0.00 88 1011.6
20260905061317 65 266 0.0 0.0 0.03 0.00 0.00 87 1011.5
20260905061014 65 266 0.0 0.0 0.03 0.00 0.00 87 1011.6
20260905060711 65 266 0.0 0.0 0.03 0.00 0.00 88 1011.4
20260905060407 65 266 0.0 0.0 0.03 0.00 0.00 89 1011.5
20260905060104 64 266 0.0 0.0 0.03 0.00 0.00 89 1011.4
20260905055801 64 266 0.0 0.0 0.03 0.00 0.00 90 1011.4
20260905055457 63 266 0.0 0.0 0.03 0.00 0.00 91 1011.5
20260905055154 63 266 0.0 0.0 0.03 0.00 0.00 92 1011.5
20260905054851 63 266 0.0 0.0 0.03 0.00 0.00 92 1011.3
20260905054547 63 266 0.0 0.0 0.03 0.00 0.00 92 1011.5
20260905054244 62 266 0.0 0.0 0.03 0.00 0.00 92 1011.4
20260905053940 62 266 0.0 0.0 0.03 0.00 0.00 93 1011.4
20260905053637 62 266 0.0 0.0 0.03 0.00 0.00 93 1011.0
20260905053334 62 266 0.0 0.0 0.03 0.00 0.00 94 1011.3
20260905053030 62 266 0.0 0.0 0.03 0.00 0.00 94 1011.1
20260905052727 62 266 0.0 0.0 0.03 0.00 0.00 94 1011.1
20260905052424 61 266 0.0 0.0 0.03 0.00 0.00 94 1010.8
20260905052120 61 266 0.0 0.0 0.03 0.00 0.00 94 1011.1
20260905051817 61 266 0.0 0.0 0.03 0.00 0.00 94 1010.8
20260905051514 61 266 0.0 0.0 0.03 0.00 0.00 94 1010.7
20260905051210 61 266 0.0 0.0 0.03 0.00 0.00 94 1010.7
20260905050907 61 266 0.0 0.0 0.03 0.00 0.00 94 1010.6
20260905050604 60 266 0.0 0.0 0.03 0.00 0.00 94 1010.8
20260905050300 60 266 0.0 0.0 0.03 0.00 0.00 94 1010.6
20260905045957 60 266 0.0 0.0 0.03 0.00 0.00 93 1010.4
20260905045654 61 266 0.0 0.0 0.03 0.00 0.00 93 1010.5
20260905045350 61 266 0.0 0.0 0.03 0.00 0.00 93 1010.5
20260905045047 61 266 0.0 0.0 0.03 0.00 0.00 93 1010.4
20260905044743 61 266 0.0 0.0 0.03 0.00 0.00 93 1010.5
20260905044440 61 266 0.0 0.0 0.03 0.00 0.00 93 1010.7
20260905044137 61 266 0.0 0.0 0.03 0.00 0.00 94 1010.5
20260905043833 61 266 0.0 0.0 0.03 0.00 0.00 94 1010.4
20260905043530 61 266 0.0 0.0 0.03 0.00 0.00 94 1010.6
20260905043227 61 266 0.0 0.0 0.03 0.00 0.00 94 1010.6
20260905042923 60 266 0.0 0.0 0.03 0.00 0.00 94 1010.4
20260905042620 60 266 0.0 0.0 0.03 0.00 0.00 94 1010.5
20260905042317 60 266 0.0 0.0 0.03 0.00 0.00 94 1010.3
20260905042013 61 266 0.0 0.0 0.03 0.00 0.00 93 1010.5
20260905041710 61 266 0.0 0.0 0.03 0.00 0.00 93 1010.2
20260905041407 61 266 0.0 0.0 0.03 0.00 0.00 93 1010.4
20260905041103 61 266 0.0 0.0 0.03 0.00 0.00 94 1010.3
20260905040758 61 266 0.0 0.0 0.03 0.00 0.00 94 1010.2
20260905040455 60 266 0.0 0.0 0.03 0.00 0.00 94 1010.1
20260905040152 60 266 0.0 0.0 0.03 0.00 0.00 94 1010.0
20260905035848 60 266 0.0 0.0 0.03 0.00 0.00 94 1009.9
20260905035545 60 266 0.0 0.0 0.03 0.00 0.00 94 1010.2
20260905035242 60 266 0.0 0.0 0.03 0.00 0.00 94 1010.0
20260905034938 60 266 0.0 0.0 0.03 0.00 0.00 94 1010.0
20260905034635 60 266 0.0 0.0 0.03 0.00 0.00 94 1009.9
20260905034332 60 266 0.0 0.0 0.03 0.00 0.00 94 1009.9
20260905034028 60 266 0.0 0.0 0.03 0.00 0.00 95 1010.0
20260905033725 60 266 0.0 0.0 0.03 0.00 0.00 95 1009.8
20260905033422 60 266 0.0 0.0 0.03 0.00 0.00 95 1010.1
20260905033118 60 266 0.0 0.0 0.03 0.00 0.00 95 1009.9
20260905032815 60 266 0.0 0.0 0.03 0.00 0.00 95 1009.8
20260905032512 60 266 0.0 0.0 0.03 0.00 0.00 95 1009.8
20260905032208 60 266 0.0 0.0 0.03 0.00 0.00 95 1009.9
20260905031905 60 266 0.0 0.0 0.03 0.00 0.00 95 1009.7
20260905031602 60 266 0.0 0.0 0.03 0.00 0.00 95 1009.6
20260905031258 60 266 0.0 0.0 0.03 0.00 0.00 95 1009.5
20260905030955 60 266 0.0 0.0 0.03 0.00 0.00 95 1009.6
20260905030652 60 266 0.0 0.0 0.03 0.00 0.00 96 1009.5
20260905030348 60 266 0.0 0.0 0.03 0.00 0.00 96 1009.5
20260905030045 59 266 0.0 0.0 0.03 0.00 0.00 95 1009.7
20260905025742 60 266 0.0 0.0 0.03 0.00 0.00 95 1009.3
20260905025438 60 266 0.0 0.0 0.03 0.00 0.00 95 1009.6
20260905025135 60 266 0.0 0.0 0.03 0.00 0.00 95 1009.3
20260905024832 60 266 0.0 0.0 0.03 0.00 0.00 95 1009.4
20260905024529 60 266 0.0 0.0 0.03 0.00 0.00 95 1009.4
20260905024225 60 266 0.0 0.0 0.03 0.00 0.00 95 1009.4
20260905023922 60 266 0.0 0.0 0.03 0.00 0.00 95 1009.4
20260905023619 60 266 0.0 0.0 0.03 0.00 0.00 95 1009.3
20260905023315 60 266 0.0 0.0 0.03 0.00 0.00 95 1009.3
20260905023012 60 266 0.0 0.0 0.03 0.00 0.00 95 1009.2
20260905022708 60 266 0.0 0.0 0.03 0.00 0.00 95 1009.4
20260905022405 59 266 0.0 0.0 0.03 0.00 0.00 96 1009.5
20260905022101 60 266 0.0 0.0 0.03 0.00 0.00 96 1009.3
20260905021758 59 266 0.0 0.0 0.03 0.00 0.00 96 1009.2
20260905021455 59 266 0.0 0.0 0.03 0.00 0.00 96 1009.3
20260905021151 59 266 0.0 0.0 0.03 0.00 0.00 95 1009.5
20260905020848 60 266 0.0 0.0 0.03 0.00 0.00 95 1009.5
20260905020545 60 266 0.0 0.0 0.03 0.00 0.00 95 1009.4
20260905020222 60 266 0.0 0.0 0.03 0.00 0.00 95 1009.3
20260905015918 60 266 0.0 0.0 0.03 0.00 0.00 95 1009.6
20260905015615 60 266 0.0 0.0 0.03 0.00 0.00 95 1009.4
20260905015312 60 266 0.0 0.0 0.03 0.00 0.00 95 1009.3
20260905015008 60 266 0.0 0.0 0.03 0.00 0.00 95 1009.5
20260905014705 60 266 0.0 0.0 0.03 0.00 0.00 95 1009.6
20260905014402 60 266 0.0 0.0 0.03 0.00 0.00 95 1009.6
20260905014058 60 266 0.0 0.0 0.03 0.00 0.00 95 1009.6
20260905013755 60 266 0.0 0.0 0.03 0.00 0.00 95 1009.7
20260905013452 60 266 0.0 0.0 0.03 0.00 0.00 95 1009.4
20260905013148 59 266 0.0 0.0 0.03 0.00 0.00 94 1009.6
20260905012845 60 266 0.0 0.0 0.03 0.00 0.00 94 1009.6
20260905012542 60 266 0.0 0.0 0.03 0.00 0.00 95 1009.5
20260905012238 60 266 0.0 0.0 0.03 0.00 0.00 95 1009.6
20260905011935 60 266 0.0 0.0 0.03 0.00 0.00 95 1009.7
20260905011631 60 266 0.0 0.0 0.03 0.00 0.00 95 1009.6
20260905011328 60 266 0.0 0.0 0.03 0.00 0.00 94 1009.6
20260905011025 60 266 0.0 0.0 0.03 0.00 0.00 94 1009.6
20260905010721 61 266 0.0 0.0 0.03 0.00 0.00 94 1009.5
20260905010418 60 266 0.0 0.0 0.03 0.00 0.00 94 1009.4
20260905010115 61 266 0.0 0.0 0.03 0.00 0.00 94 1009.6
20260905005811 61 266 0.0 0.0 0.03 0.00 0.00 94 1009.6
20260905005508 61 266 0.0 0.0 0.03 0.00 0.00 94 1009.6
20260905005205 61 266 0.0 0.0 0.03 0.00 0.00 94 1009.5
20260905004901 61 266 0.0 0.0 0.03 0.00 0.00 94 1009.5
20260905004558 61 266 0.0 0.0 0.03 0.00 0.00 94 1009.5
20260905004255 61 266 0.0 0.0 0.03 0.00 0.00 94 1009.4
20260905003951 61 266 0.0 0.0 0.03 0.00 0.00 94 1009.7
20260905003648 61 266 0.0 0.0 0.03 0.00 0.00 94 1009.5
20260905003345 61 266 0.0 0.0 0.03 0.00 0.00 94 1009.6
20260905003041 61 266 0.0 0.0 0.03 0.00 0.00 94 1009.4